Volver al catálogo

STARLINK-30193

ActivoComunicacionesVLEO
NORAD 57414·PAYLOAD·🇺🇸 United States

Lanzado Jul 20, 2023 desde Vandenberg Space Force Base

Loading…

Próximos Pases (próximas 24 horas)

TLE

ActualizadoSource: CelesTrak SupGP

Época: Sep 15, 2026, 03:23 UTC

1 57414C 23102L   26258.14145833  .00047440  00000+0  42156-3 0  2588
2 57414  42.9980 234.2920 0007394 136.5488 210.5481 15.67529404    10

Sigue STARLINK-30193 en tiempo real con AllMySat

Download on the App Store